Weather History for Caslav, Czech Republic

Change the Weather History Date:

Sunday, March 18, 2012

  Actual Average (LKPR) Record (LKPR)
Temperature  
Mean Temperature 54 °F -  
Max Temperature 68 °F 44 °F 71 °F (2004)
Min Temperature 41 °F 30 °F 23 °F (1997)
Degree Days  
Heating Degree Days 10    
Growing Degree Days 4 (Base 50)    
Moisture  
Dew Point 36 °F    
Average Humidity 53    
Maximum Humidity 81    
Minimum Humidity 26    
Precipitation  
Precipitation 0.00 in - - ()
Sea Level Pressure  
Sea Level Pressure 29.97 in    
Wind  
Wind Speed 5 mph ()    
Max Wind Speed 16 mph    
Max Gust Speed -    
Averages and records for this station are not official NWS values.
T = Trace of Precipitation, MM = Missing Value Source: Averaged Metar Reports

Daily Weather History Graph

Daily Weather History Graph

Search for Another Location

Airport:

Trip Planner

Search our weather history database for the weather conditions in past years. The results will help you decide how hot, cold, wet, or windy it might be!

Date:

Astronomy

Mar. 18, 2012 Rise Set
Actual Time 6:05 AM CET 6:08 PM CET
Civil Twilight 5:32 AM CET 6:40 PM CET
Nautical Twilight 4:55 AM CET 7:18 PM CET
Astronomical Twilight 4:16 AM CET 7:58 PM CET
Moon 3:55 AM CET (3/18) 1:57 PM CET (3/18)
Length of Visible Light 13h 07m
Length of Day
12h 03m
Waning Crescent, 17% of the Moon is Illuminated
Mar 18
Waning Crescent
Mar 22
New
Mar 30
First Quarter
Apr 6
Full
Apr 13
Last Quarter

Hourly Weather History & Observations

Time (CET) Temp. Windchill Dew Point Humidity Pressure Visibility Wind Dir Wind Speed Gust Speed Precip Events Conditions
12:00 AM 50.0 °F - 39.2 °F 66% 30.01 in - SE 6.9 mph - N/A   Clear
1:00 AM 48.2 °F - 39.2 °F 71% 30.01 in - SSE 5.8 mph - N/A   Clear
2:00 AM 48.2 °F - 37.4 °F 66% 30.01 in - SE 3.5 mph - N/A   Clear
3:00 AM 44.6 °F 43.1 °F 39.2 °F 81% 30.01 in - SE 3.5 mph - N/A   Clear
4:00 AM 44.6 °F - 37.4 °F 76% 30.01 in - ESE 2.3 mph - N/A   Clear
5:00 AM 42.8 °F 39.3 °F 35.6 °F 76% 30.01 in - SE 5.8 mph - N/A   Clear
6:00 AM 41.0 °F 36.4 °F 35.6 °F 81% 30.01 in - SE 6.9 mph - N/A   Clear
7:00 AM 42.8 °F 39.3 °F 35.6 °F 76% 30.01 in - SSE 5.8 mph - N/A   Clear
8:00 AM 48.2 °F - 35.6 °F 62% 30.01 in - SE 3.5 mph - N/A   Clear
9:00 AM 53.6 °F - 37.4 °F 54% 30.04 in - Variable 2.3 mph - N/A   Clear
10:00 AM 59.0 °F - 39.2 °F 48% 30.04 in - Variable 2.3 mph - N/A   Clear
11:00 AM 62.6 °F - 35.6 °F 37% 30.01 in - Variable 2.3 mph - N/A   Clear
12:00 PM 64.4 °F - 33.8 °F 32% 29.98 in - Variable 3.5 mph - N/A   Clear
1:00 PM 66.2 °F - 35.6 °F 32% 29.98 in - South 3.5 mph - N/A   Clear
2:00 PM 68.0 °F - 32.0 °F 26% 29.95 in - SSE 5.8 mph - N/A   Clear
3:00 PM 68.0 °F - 33.8 °F 28% 29.92 in - South 5.8 mph - N/A   Clear
4:00 PM 66.2 °F - 33.8 °F 30% 29.92 in - SSE 6.9 mph - N/A   Clear
5:00 PM 66.2 °F - 33.8 °F 30% 29.89 in - SE 6.9 mph - N/A   Clear
6:00 PM 60.8 °F - 35.6 °F 39% 29.89 in - SSE 6.9 mph - N/A   Clear
7:00 PM 57.2 °F - 35.6 °F 44% 29.89 in - South 5.8 mph - N/A   Clear
8:00 PM 57.2 °F - 35.6 °F 44% 29.92 in - NW 5.8 mph - N/A   Clear
9:00 PM 51.8 °F - 37.4 °F 58% 29.92 in - Variable 2.3 mph - N/A   Clear
10:00 PM 53.6 °F - 37.4 °F 54% 29.92 in - South 5.8 mph - N/A   Clear
11:00 PM 51.8 °F - 41.0 °F 67% 29.95 in - WNW 16.1 mph - N/A   Clear